Faro, Portugal

9:18 AM WET on November 18, 2019 (GMT +0000)
Faro

Weather History for LPFR - September, 2019

Change the Weather History Date:

Wednesday, September 25, 2019

  Actual Average Record
Temperature  
Mean Temperature 74 °F -  
Max Temperature 85 °F 72 °F 86 °F (2018)
Min Temperature 62 °F 59 °F 55 °F (1996)
Cooling Degree Days 8    
Growing Degree Days 24 (Base 50)    
Moisture  
Dew Point 57 °F    
Average Humidity 58    
Maximum Humidity 83    
Minimum Humidity 19    
Precipitation  
Precipitation 0.00 in 0.08 in - ()
Sea Level Pressure  
Sea Level Pressure 30.08 in    
Wind  
Wind Speed 7 mph ()    
Max Wind Speed 18 mph    
Max Gust Speed 20 mph    
Visibility 12.5 miles    
Events      
Averages and records for this station are not official NWS values.
T = Trace of Precipitation, MM = Missing Value Source: Averaged Metar Reports

Daily Weather History Graph

Daily Weather History Graph

Search for Another Location

Airport or City:

Astronomy

Sep. 25, 2019 Rise Set
Actual Time 7:21 AM WEST 7:24 PM WEST
Civil Twilight 6:55 AM WEST 7:50 PM WEST
Nautical Twilight 6:25 AM WEST 8:20 PM WEST
Astronomical Twilight 5:55 AM WEST 8:51 PM WEST
Moon 3:07 AM WEST (9/25) 5:39 PM WEST (9/25)
Length of Visible Light 12h 54m
Length of Day
12h 03m
Waning Crescent, 16% of the Moon is Illuminated
Sep 25
Waning Crescent
Sep 28
New
Oct 5
First Quarter
Oct 13
Full
Oct 21
Last Quarter

Hourly Weather History & Observations

Time (WEST) Temp. Dew Point Humidity Pressure Visibility Wind Dir Wind Speed Gust Speed Precip Events Conditions
12:00 AM 71.6 °F 66.2 °F 83% 30.09 in - WNW 8.1 mph - N/A   Clear
12:30 AM 73.4 °F 66.2 °F 78% 30.09 in - NW 9.2 mph - N/A   Clear
1:00 AM 72 °F 64 °F 71% 30.12 in 12 mi NNW 4.5 mph - -   Clear
1:00 AM 71.6 °F 64.4 °F 78% 30.09 in - NW 6.9 mph - N/A   Clear
1:30 AM 71.6 °F 64.4 °F 78% 30.09 in - WNW 5.8 mph - N/A   Clear
2:00 AM 71 °F 64 °F 71% 30.12 in - NNW 4.5 mph - -  
2:30 AM 69.8 °F 62.6 °F 78% 30.09 in - NW 6.9 mph - N/A   Clear
3:00 AM 70 °F 63 °F 72% 30.12 in - NNW 2.2 mph - -  
3:00 AM 69.8 °F 62.6 °F 78% 30.09 in - NW 6.9 mph - N/A   Clear
3:30 AM 68.0 °F 62.6 °F 83% 30.09 in - WNW 5.8 mph - N/A   Clear
4:00 AM 68 °F 61 °F 73% 30.11 in 12 mi NW 6.7 mph - -   Clear
4:00 AM 68.0 °F 62.6 °F 83% 30.09 in - WNW 6.9 mph - N/A   Clear
4:30 AM 68.0 °F 60.8 °F 78% 30.09 in - WNW 6.9 mph - N/A   Clear
5:00 AM 66.2 °F 59.0 °F 78% 30.09 in - NNW 5.8 mph - N/A   Clear
5:30 AM 66.2 °F 59.0 °F 78% 30.09 in - NW 6.9 mph - N/A   Clear
6:00 AM 66.2 °F 59.0 °F 78% 30.09 in - WNW 6.9 mph - N/A   Clear
6:30 AM 64.4 °F 59.0 °F 83% 30.09 in - NNW 4.6 mph - N/A   Clear
7:00 AM 64 °F 58 °F 74% 30.13 in 12 mi NNW 4.5 mph - -   Clear
7:00 AM 64.4 °F 57.2 °F 77% 30.09 in - NW 5.8 mph - N/A   Clear
7:30 AM 62.6 °F 57.2 °F 82% 30.09 in - NW 8.1 mph - N/A   Clear
8:00 AM 62 °F 57 °F 79% 30.14 in - NW 4.5 mph - -  
8:00 AM 62.6 °F 57.2 °F 82% 30.12 in - NNW 5.8 mph - N/A   Clear
8:30 AM 64.4 °F 59.0 °F 83% 30.12 in - WNW 9.2 mph - N/A   Clear
9:00 AM 66 °F 57 °F 66% 30.15 in - NW 6.7 mph - -  
9:00 AM 66.2 °F 57.2 °F 73% 30.12 in - WNW 9.2 mph - N/A   Clear
9:30 AM 68.0 °F 57.2 °F 68% 30.12 in - NW 6.9 mph - N/A   Clear
10:00 AM 70 °F 53 °F 43% 30.16 in 12 mi WNW 4.5 mph - -   Clear
10:00 AM 69.8 °F 57.2 °F 64% 30.12 in - WNW 6.9 mph - N/A   Clear
10:30 AM 73.4 °F 51.8 °F 47% 30.12 in - NW 8.1 mph - N/A   Clear
11:00 AM 74 °F 50 °F 32% 30.15 in - North 6.7 mph - -  
11:00 AM 75.2 °F 50.0 °F 41% 30.12 in - NNW 6.9 mph - N/A   Clear
11:30 AM 75.2 °F 48.2 °F 38% 30.12 in - NW 9.2 mph - N/A   Clear
12:00 PM 77.0 °F 46.4 °F 34% 30.12 in - NNW 10.4 mph - N/A   Clear
12:30 PM 78.8 °F 46.4 °F 32% 30.09 in - NNW 9.2 mph - N/A   Clear
1:00 PM 80 °F 46 °F 20% 30.12 in 12 mi NNW 6.7 mph - -   Clear
1:00 PM 78.8 °F 46.4 °F 32% 30.09 in - NNW 10.4 mph - N/A   Clear
1:30 PM 80.6 °F 46.4 °F 30% 30.09 in - NNW 8.1 mph - N/A   Clear
2:00 PM 83 °F 48 °F 19% 30.09 in - North 6.7 mph - -  
2:00 PM 82.4 °F 46.4 °F 28% 30.06 in - NW 8.1 mph 19.6 mph N/A   Clear
2:30 PM 82.4 °F 46.4 °F 28% 30.06 in - NNW 9.2 mph - N/A   Clear
3:00 PM 77.0 °F 60.8 °F 57% 30.06 in - SW 12.7 mph - N/A   Clear
3:30 PM 73.4 °F 60.8 °F 65% 30.04 in - WSW 17.3 mph - N/A   Clear
4:00 PM 75 °F 61 °F 53% 30.06 in 12 mi West 17.9 mph - -   Clear
4:00 PM 73.4 °F 60.8 °F 65% 30.04 in - WSW 17.3 mph - N/A   Clear
4:30 PM 73.4 °F 60.8 °F 65% 30.04 in - West 17.3 mph - N/A   Clear
5:00 PM 77 °F 61 °F 49% 30.05 in - West 15.7 mph - -  
5:00 PM 75.2 °F 60.8 °F 61% 30.04 in - West 15.0 mph - N/A   Clear
5:30 PM 75.2 °F 60.8 °F 61% 30.04 in - West 16.1 mph - N/A   Clear
6:00 PM 75.2 °F 62.6 °F 65% 30.01 in - West 13.8 mph - N/A   Clear
7:00 PM 83 °F 51 °F 22% 30.04 in 16 mi NNW 11.2 mph - -   Clear
7:00 PM 82.4 °F 48.2 °F 30% 30.01 in - NNW 11.5 mph - N/A   Clear
7:30 PM 80.6 °F 48.2 °F 32% 30.01 in - NNW 11.5 mph - N/A   Clear
8:00 PM 79 °F 51 °F 27% 30.05 in - NNW 6.7 mph - -  
8:00 PM 80.6 °F 48.2 °F 32% 30.04 in - NNW 9.2 mph - N/A   Clear
8:30 PM 75.2 °F 57.2 °F 53% 30.04 in - WNW 11.5 mph - N/A   Clear
9:00 PM 73 °F 57 °F 47% 30.07 in - NW 11.2 mph - -  
9:00 PM 73.4 °F 57.2 °F 57% 30.04 in - WNW 11.5 mph - N/A   Clear
9:30 PM 73.4 °F 57.2 °F 57% 30.04 in - NW 11.5 mph - N/A   Clear
10:00 PM 72 °F 56 °F 47% 30.08 in 12 mi NW 8.9 mph - -   Clear
10:00 PM 71.6 °F 55.4 °F 57% 30.04 in - WNW 9.2 mph - N/A   Clear
10:30 PM 71.6 °F 55.4 °F 57% 30.06 in - WNW 6.9 mph - N/A   Clear
11:00 PM 72 °F 56 °F 47% 30.08 in - NNW 6.7 mph - -  
11:00 PM 71.6 °F 55.4 °F 57% 30.06 in - NW 6.9 mph - N/A   Clear
11:30 PM 71.6 °F 55.4 °F 57% 30.06 in - NNW 6.9 mph - N/A   Clear